Time,TemperatureF,DewpointF,PressureIn,WindDirection,WindDirectionDegrees,WindSpeedMPH,WindSpeedGustMPH,Humidity,HourlyPrecipIn,Conditions,Clouds,dailyrainin,SoftwareType,DateUTC
2013-03-11 00:00:00,51.0,43.0,30.30,NE,36,0.0,3.0,74,0.00,,---,0.00,VWS V14.00,2013-03-11 07:00:00,
2013-03-11 00:29:00,50.9,44.0,30.30,NE,36,0.0,0.0,77,0.00,,---,0.00,VWS V14.00,2013-03-11 07:29:00,
2013-03-11 00:30:00,50.9,44.0,30.30,NE,36,0.0,0.0,77,0.00,,---,0.00,VWS V14.00,2013-03-11 07:30:00,
2013-03-11 00:59:00,49.4,43.8,30.30,NW,317,0.0,4.0,81,0.00,,---,0.00,VWS V14.00,2013-03-11 07:59:00,
2013-03-11 01:00:00,49.4,43.8,30.30,NW,317,0.0,4.0,81,0.00,,---,0.00,VWS V14.00,2013-03-11 08:00:00,
2013-03-11 01:29:00,46.3,42.7,30.29,NW,317,0.0,4.0,87,0.00,,---,0.00,VWS V14.00,2013-03-11 08:29:00,
2013-03-11 01:30:00,46.3,42.7,30.29,NW,317,0.0,4.0,87,0.00,,---,0.00,VWS V14.00,2013-03-11 08:30:00,
2013-03-11 01:59:00,46.1,43.0,30.30,NW,317,0.0,0.0,89,0.00,,---,0.00,VWS V14.00,2013-03-11 08:59:00,
2013-03-11 02:00:00,46.1,43.0,30.30,NW,317,0.0,0.0,89,0.00,,---,0.00,VWS V14.00,2013-03-11 09:00:00,
2013-03-11 02:29:00,47.7,43.4,30.29,NW,317,0.0,2.0,85,0.00,,---,0.00,VWS V14.00,2013-03-11 09:29:00,
2013-03-11 02:30:00,47.7,43.4,30.29,NW,317,0.0,2.0,85,0.00,,---,0.00,VWS V14.00,2013-03-11 09:30:00,
2013-03-11 02:59:00,46.3,42.7,30.29,NW,317,0.0,1.0,87,0.00,,---,0.00,VWS V14.00,2013-03-11 09:59:00,
2013-03-11 03:00:00,46.3,42.7,30.29,NW,317,0.0,1.0,87,0.00,,---,0.00,VWS V14.00,2013-03-11 10:00:00,
2013-03-11 03:29:00,45.4,41.8,30.28,ESE,103,0.0,2.0,87,0.00,,---,0.00,VWS V14.00,2013-03-11 10:29:00,
2013-03-11 03:30:00,45.4,41.8,30.28,ESE,103,0.0,2.0,87,0.00,,---,0.00,VWS V14.00,2013-03-11 10:30:00,
2013-03-11 03:59:00,45.6,41.4,30.27,East,90,0.0,0.0,85,0.00,,---,0.00,VWS V14.00,2013-03-11 10:59:00,
2013-03-11 04:00:00,45.6,41.4,30.27,East,90,0.0,0.0,85,0.00,,---,0.00,VWS V14.00,2013-03-11 11:00:00,
2013-03-11 04:29:00,45.1,41.5,30.27,East,89,0.0,1.0,87,0.00,,---,0.00,VWS V14.00,2013-03-11 11:29:00,
2013-03-11 04:30:00,45.1,41.5,30.27,East,89,0.0,1.0,87,0.00,,---,0.00,VWS V14.00,2013-03-11 11:30:00,
2013-03-11 04:59:00,44.9,41.3,30.27,NW,319,0.0,2.0,87,0.00,,---,0.00,VWS V14.00,2013-03-11 11:59:00,
2013-03-11 05:00:00,44.9,41.3,30.27,NW,319,0.0,2.0,87,0.00,,---,0.00,VWS V14.00,2013-03-11 12:00:00,
2013-03-11 05:29:00,44.4,40.8,30.27,NW,322,0.0,1.0,87,0.00,,---,0.00,VWS V14.00,2013-03-11 12:29:00,
2013-03-11 05:30:00,44.4,40.8,30.27,NW,322,0.0,1.0,87,0.00,,---,0.00,VWS V14.00,2013-03-11 12:30:00,
2013-03-11 05:59:00,44.2,40.6,30.27,NW,322,1.0,2.0,87,0.00,,---,0.00,VWS V14.00,2013-03-11 12:59:00,
2013-03-11 06:00:00,44.2,40.6,30.27,NW,322,1.0,2.0,87,0.00,,---,0.00,VWS V14.00,2013-03-11 13:00:00,
2013-03-11 06:29:00,44.1,40.2,30.27,NW,323,0.0,4.0,86,0.00,,---,0.00,VWS V14.00,2013-03-11 13:29:00,
2013-03-11 06:30:00,44.1,40.2,30.27,NW,323,0.0,4.0,86,0.00,,---,0.00,VWS V14.00,2013-03-11 13:30:00,
2013-03-11 06:59:00,44.6,40.4,30.27,NNW,328,0.0,4.0,85,0.00,,---,0.00,VWS V14.00,2013-03-11 13:59:00,
2013-03-11 07:00:00,44.6,40.4,30.27,NNW,328,0.0,4.0,85,0.00,,---,0.00,VWS V14.00,2013-03-11 14:00:00,
2013-03-11 07:29:00,44.8,40.6,30.28,NNW,330,0.0,4.0,85,0.00,,---,0.00,VWS V14.00,2013-03-11 14:29:00,
2013-03-11 07:30:00,44.8,40.6,30.28,NNW,330,0.0,4.0,85,0.00,,---,0.00,VWS V14.00,2013-03-11 14:30:00,
2013-03-11 07:59:00,45.4,40.9,30.28,NNW,330,0.0,2.0,84,0.00,,---,0.00,VWS V14.00,2013-03-11 14:59:00,
2013-03-11 08:00:00,45.4,40.9,30.28,NNW,330,0.0,2.0,84,0.00,,---,0.00,VWS V14.00,2013-03-11 15:00:00,
2013-03-11 08:29:00,47.7,41.5,30.28,NNW,330,2.0,4.0,79,0.00,,---,0.00,VWS V14.00,2013-03-11 15:29:00,
2013-03-11 08:30:00,47.7,41.5,30.28,NNW,330,2.0,4.0,79,0.00,,---,0.00,VWS V14.00,2013-03-11 15:30:00,
2013-03-11 08:59:00,49.5,41.9,30.28,NW,325,0.0,6.0,75,0.00,,---,0.00,VWS V14.00,2013-03-11 15:59:00,
2013-03-11 09:00:00,49.5,41.9,30.28,NW,325,0.0,6.0,75,0.00,,---,0.00,VWS V14.00,2013-03-11 16:00:00,
2013-03-11 09:29:00,51.8,43.4,30.29,NW,317,0.0,6.0,73,0.00,,---,0.00,VWS V14.00,2013-03-11 16:29:00,
2013-03-11 09:30:00,51.8,43.4,30.29,NW,317,0.0,6.0,73,0.00,,---,0.00,VWS V14.00,2013-03-11 16:30:00,
2013-03-11 09:59:00,54.9,44.5,30.27,NW,325,0.0,2.0,68,0.00,,---,0.00,VWS V14.00,2013-03-11 16:59:00,
2013-03-11 10:00:00,54.9,44.5,30.27,NW,325,0.0,2.0,68,0.00,,---,0.00,VWS V14.00,2013-03-11 17:00:00,
2013-03-11 10:29:00,58.7,44.4,30.27,NW,315,0.0,4.0,59,0.00,,---,0.00,VWS V14.00,2013-03-11 17:29:00,
2013-03-11 10:30:00,58.7,44.4,30.27,NW,315,0.0,4.0,59,0.00,,---,0.00,VWS V14.00,2013-03-11 17:30:00,
2013-03-11 10:59:00,61.5,45.2,30.26,WNW,296,2.0,5.0,55,0.00,,---,0.00,VWS V14.00,2013-03-11 17:59:00,
2013-03-11 11:00:00,61.5,45.2,30.26,WNW,296,2.0,5.0,55,0.00,,---,0.00,VWS V14.00,2013-03-11 18:00:00,
2013-03-11 11:29:00,65.3,46.2,30.26,WNW,290,1.0,4.0,50,0.00,,---,0.00,VWS V14.00,2013-03-11 18:29:00,
2013-03-11 11:30:00,65.3,46.2,30.26,WNW,290,1.0,4.0,50,0.00,,---,0.00,VWS V14.00,2013-03-11 18:30:00,
2013-03-11 11:59:00,68.3,47.3,30.25,WNW,286,0.0,6.0,47,0.00,,---,0.00,VWS V14.00,2013-03-11 18:59:00,
2013-03-11 12:00:00,68.3,47.3,30.25,WNW,286,0.0,6.0,47,0.00,,---,0.00,VWS V14.00,2013-03-11 19:00:00,
2013-03-11 12:29:00,68.1,46.0,30.24,NNW,335,1.0,5.0,45,0.00,,---,0.00,VWS V14.00,2013-03-11 19:29:00,
2013-03-11 12:30:00,68.1,46.0,30.24,NNW,335,1.0,5.0,45,0.00,,---,0.00,VWS V14.00,2013-03-11 19:30:00,
2013-03-11 12:59:00,69.3,49.9,30.23,SSW,206,0.0,8.0,50,0.00,,---,0.00,VWS V14.00,2013-03-11 19:59:00,
2013-03-11 13:00:00,69.3,49.9,30.23,SSW,206,0.0,8.0,50,0.00,,---,0.00,VWS V14.00,2013-03-11 20:00:00,
2013-03-11 13:29:00,65.4,51.2,30.21,South,178,0.0,8.0,60,0.00,,---,0.00,VWS V14.00,2013-03-11 20:29:00,
2013-03-11 13:30:00,65.4,51.2,30.21,South,178,0.0,8.0,60,0.00,,---,0.00,VWS V14.00,2013-03-11 20:30:00,
2013-03-11 13:59:00,65.4,51.2,30.20,SSE,154,0.0,8.0,60,0.00,,---,0.00,VWS V14.00,2013-03-11 20:59:00,
2013-03-11 14:00:00,65.4,51.2,30.20,SSE,154,0.0,8.0,60,0.00,,---,0.00,VWS V14.00,2013-03-11 21:00:00,
2013-03-11 14:29:00,64.6,49.0,30.19,SSW,211,6.0,8.0,57,0.00,,---,0.00,VWS V14.00,2013-03-11 21:29:00,
2013-03-11 14:30:00,64.6,49.0,30.19,SSW,211,6.0,8.0,57,0.00,,---,0.00,VWS V14.00,2013-03-11 21:30:00,
2013-03-11 14:59:00,63.2,48.2,30.18,SSW,201,4.0,11.0,58,0.00,,---,0.00,VWS V14.00,2013-03-11 21:59:00,
2013-03-11 15:00:00,63.2,48.2,30.18,SSW,201,4.0,11.0,58,0.00,,---,0.00,VWS V14.00,2013-03-11 22:00:00,
2013-03-11 15:29:00,60.8,45.5,30.18,SSW,205,6.0,14.0,57,0.00,,---,0.00,VWS V14.00,2013-03-11 22:29:00,
2013-03-11 15:30:00,60.8,45.5,30.18,SSW,205,6.0,14.0,57,0.00,,---,0.00,VWS V14.00,2013-03-11 22:30:00,
2013-03-11 15:59:00,61.8,45.5,30.18,SW,225,5.0,13.0,55,0.00,,---,0.00,VWS V14.00,2013-03-11 22:59:00,
2013-03-11 16:00:00,61.8,45.5,30.18,SW,225,5.0,13.0,55,0.00,,---,0.00,VWS V14.00,2013-03-11 23:00:00,
2013-03-11 16:29:00,62.1,45.8,30.18,South,188,0.0,11.0,55,0.00,,---,0.00,VWS V14.00,2013-03-11 23:29:00,
2013-03-11 16:30:00,62.1,45.8,30.18,South,188,0.0,11.0,55,0.00,,---,0.00,VWS V14.00,2013-03-11 23:30:00,
2013-03-11 16:59:00,61.3,48.2,30.16,SE,144,1.0,7.0,62,0.00,,---,0.00,VWS V14.00,2013-03-11 23:59:00,
2013-03-11 17:00:00,61.3,48.2,30.16,SE,144,1.0,7.0,62,0.00,,---,0.00,VWS V14.00,2013-03-12 00:00:00,
2013-03-11 17:29:00,58.2,48.5,30.16,South,181,0.0,6.0,70,0.00,,---,0.00,VWS V14.00,2013-03-12 00:29:00,
2013-03-11 17:30:00,58.2,48.5,30.16,South,181,0.0,6.0,70,0.00,,---,0.00,VWS V14.00,2013-03-12 00:30:00,
2013-03-11 17:59:00,54.8,48.8,30.15,SE,124,0.0,8.0,80,0.00,,---,0.00,VWS V14.00,2013-03-12 00:59:00,
2013-03-11 18:00:00,54.8,48.8,30.15,SE,124,0.0,8.0,80,0.00,,---,0.00,VWS V14.00,2013-03-12 01:00:00,
2013-03-11 18:29:00,53.0,48.6,30.15,SE,136,0.0,7.0,85,0.00,,---,0.00,VWS V14.00,2013-03-12 01:29:00,
2013-03-11 18:30:00,53.0,48.6,30.15,SE,136,0.0,7.0,85,0.00,,---,0.00,VWS V14.00,2013-03-12 01:30:00,
2013-03-11 18:59:00,51.4,47.4,30.14,SE,131,0.0,7.0,86,0.00,,---,0.00,VWS V14.00,2013-03-12 01:59:00,
2013-03-11 19:00:00,51.4,47.4,30.14,SE,131,0.0,7.0,86,0.00,,---,0.00,VWS V14.00,2013-03-12 02:00:00,
2013-03-11 19:29:00,49.6,46.5,30.14,East,100,0.0,4.0,89,0.00,,---,0.00,VWS V14.00,2013-03-12 02:29:00,
2013-03-11 19:30:00,49.6,46.5,30.14,East,100,0.0,4.0,89,0.00,,---,0.00,VWS V14.00,2013-03-12 02:30:00,
2013-03-11 19:59:00,48.4,45.9,30.14,ENE,74,0.0,4.0,91,0.00,,---,0.00,VWS V14.00,2013-03-12 02:59:00,
2013-03-11 20:00:00,48.4,45.9,30.14,ENE,74,0.0,4.0,91,0.00,,---,0.00,VWS V14.00,2013-03-12 03:00:00,
2013-03-11 20:29:00,50.1,46.7,30.15,East,97,0.0,7.0,88,0.00,,---,0.00,VWS V14.00,2013-03-12 03:29:00,
2013-03-11 20:30:00,50.1,46.7,30.15,East,97,0.0,7.0,88,0.00,,---,0.00,VWS V14.00,2013-03-12 03:30:00,
2013-03-11 20:59:00,51.9,45.9,30.15,East,85,0.0,5.0,80,0.00,,---,0.00,VWS V14.00,2013-03-12 03:59:00,
2013-03-11 21:00:00,51.9,45.9,30.15,East,85,0.0,5.0,80,0.00,,---,0.00,VWS V14.00,2013-03-12 04:00:00,
2013-03-11 21:29:00,50.9,45.0,30.16,East,85,0.0,0.0,80,0.00,,---,0.00,VWS V14.00,2013-03-12 04:29:00,
2013-03-11 21:30:00,50.9,45.0,30.16,East,85,0.0,0.0,80,0.00,,---,0.00,VWS V14.00,2013-03-12 04:30:00,
2013-03-11 21:59:00,49.5,46.7,30.16,NW,313,0.0,5.0,90,0.00,,---,0.00,VWS V14.00,2013-03-12 04:59:00,
2013-03-11 22:00:00,49.5,46.7,30.16,NW,313,0.0,5.0,90,0.00,,---,0.00,VWS V14.00,2013-03-12 05:00:00,
2013-03-11 22:29:00,49.2,47.0,30.16,NW,313,0.0,5.0,92,0.00,,---,0.00,VWS V14.00,2013-03-12 05:29:00,
2013-03-11 22:30:00,49.2,47.0,30.16,NW,313,0.0,5.0,92,0.00,,---,0.00,VWS V14.00,2013-03-12 05:30:00,
2013-03-11 22:59:00,50.1,46.4,30.16,NE,38,0.0,0.0,87,0.00,,---,0.00,VWS V14.00,2013-03-12 05:59:00,
2013-03-11 23:00:00,50.1,46.4,30.16,NE,38,0.0,0.0,87,0.00,,---,0.00,VWS V14.00,2013-03-12 06:00:00,
2013-03-11 23:29:00,51.7,47.0,30.16,NE,38,0.0,0.0,84,0.00,,---,0.00,VWS V14.00,2013-03-12 06:29:00,
2013-03-11 23:30:00,51.7,47.0,30.16,NE,38,0.0,0.0,84,0.00,,---,0.00,VWS V14.00,2013-03-12 06:30:00,
2013-03-11 23:59:00,50.0,45.4,30.16,NE,38,0.0,0.0,84,0.00,,---,0.00,VWS V14.00,2013-03-12 06:59:00,